Latest Weather Observations for Redcliffe

IDQ60901

Issued at 1:11 pm EST Monday 25 May 2015 (issued every 10 minutes, with the page automatically refreshed every 10 minutes)

About weather observations | Map of Brisbane area stations | Latest observations for Brisbane area | Other Formats
Station Details ID: 040958 Name: REDCLIFFE Lat: -27.22 Lon: 153.09 Height: 12.6 m
Data from the previous 72 hours. | See also: Recent months at Redcliffe
Date/Time
EST
Tmp

°C
App
Tmp
°C
Dew
Point
°C
Rel
Hum
%
Delta-T

°C
Wind Press
QNH
hPa
Press
MSL
hPa
Rain
since
9 am
mm
Dir
 
Spd
km/h
Gust
km/h
Spd
kts
Gust
kts
25/01:00pm 21.4 18.6 12.5 57 5.0 SSE 19 20 10 11 1028.3 1028.3 0.0
25/12:30pm 21.4 18.4 12.5 57 5.0 SSE 20 24 11 13 1028.7 1028.7 0.0
25/12:00pm 21.1 18.7 12.8 59 4.7 SSE 17 19 9 10 1029.2 1029.2 0.0
25/11:30am 20.9 18.2 12.8 60 4.6 S 19 20 10 11 1029.7 1029.7 0.0
25/11:00am 21.0 18.2 13.2 61 4.4 S 20 24 11 13 1030.2 1030.2 0.0
25/10:30am 20.9 18.5 13.8 64 4.1 S 19 22 10 12 1030.6 1030.6 0.0
25/10:00am 20.1 17.8 13.1 64 3.9 S 17 22 9 12 1030.6 1030.6 0.0
25/09:30am 19.4 16.9 12.2 63 4.0 S 17 26 9 14 1030.7 1030.7 0.0
25/09:00am 18.9 16.4 12.2 65 3.7 SSW 17 26 9 14 1030.7 1030.7 0.0
25/08:30am 17.7 15.1 11.9 69 3.2 SSW 17 22 9 12 1030.3 1030.3 0.0
25/08:00am 16.9 14.1 11.4 70 3.0 SSW 17 22 9 12 1029.8 1029.8 0.0
25/07:30am 16.0 13.2 11.2 73 2.6 SSW 17 24 9 13 1029.7 1029.7 0.0
25/07:00am 15.1 12.2 11.1 77 2.1 SSW 17 24 9 13 1029.8 1029.8 0.0
25/06:30am 14.8 12.3 11.0 78 2.0 SSW 15 22 8 12 1029.8 1029.8 0.0
25/06:00am 14.9 12.4 11.1 78 2.0 SSW 15 22 8 12 1029.7 1029.7 0.0
25/05:30am 14.7 12.2 10.9 78 2.0 SW 15 20 8 11 1029.6 1029.6 0.0
25/05:00am 14.7 11.8 10.9 78 2.0 SSW 17 24 9 13 1029.3 1029.3 0.0
25/04:30am 14.8 12.3 11.0 78 2.0 SSW 15 20 8 11 1029.2 1029.2 0.0
25/04:00am 14.9 12.7 10.9 77 2.1 SSW 13 17 7 9 1029.1 1029.1 0.0
25/03:30am 15.0 12.8 10.8 76 2.2 SSW 13 19 7 10 1029.3 1029.3 0.0
25/03:00am 15.4 12.9 11.0 75 2.3 SW 15 19 8 10 1029.2 1029.2 0.0
25/02:30am 15.4 13.3 11.0 75 2.3 SW 13 19 7 10 1029.2 1029.2 0.0
25/02:00am 15.4 12.9 11.0 75 2.3 SW 15 19 8 10 1029.0 1029.0 0.0
25/01:30am 15.6 13.1 11.0 74 2.5 SW 15 20 8 11 1029.2 1029.2 0.0
25/01:00am 15.7 12.5 11.1 74 2.4 SSW 19 28 10 15 1029.2 1029.2 0.0
25/12:30am 15.5 13.0 10.9 74 2.4 SSW 15 20 8 11 1029.2 1029.2 0.0
25/12:00am 16.0 13.5 11.2 73 2.6 SSW 15 20 8 11 1029.2 1029.2 0.0
 
Date/Time
EST
Tmp

°C
App
Tmp
°C
Dew
Point
°C
Rel
Hum
%
Delta-T

°C
Wind Press
QNH
hPa
Press
MSL
hPa
Rain
since
9 am
mm
Dir
 
Spd
km/h
Gust
km/h
Spd
kts
Gust
kts
24/11:30pm 16.1 13.3 11.3 73 2.6 SSW 17 22 9 12 1029.5 1029.5 0.0
24/11:00pm 16.2 13.7 10.9 71 2.8 SSW 15 24 8 13 1029.7 1029.7 0.0
24/10:30pm 17.0 14.5 11.1 68 3.2 SSW 15 20 8 11 1030.0 1030.0 0.0
24/10:00pm 17.4 14.0 11.2 67 3.3 S 20 28 11 15 1030.2 1030.2 0.0
24/09:30pm 17.9 13.1 11.5 66 3.5 S 28 30 15 16 1029.8 1029.8 0.0
24/09:00pm 18.2 13.3 11.3 64 3.7 S 28 33 15 18 1029.5 1029.5 0.0
24/08:30pm 18.5 12.6 11.3 63 3.9 S 33 41 18 22 1029.6 1029.6 0.0
24/08:00pm 19.2 14.0 11.7 62 4.1 SSE 30 39 16 21 1029.4 1029.4 0.0
24/07:30pm 19.4 14.0 12.2 63 4.0 SSE 32 35 17 19 1029.2 1029.2 0.0
24/07:00pm 19.4 14.0 12.9 66 3.6 SSE 33 37 18 20 1028.9 1028.9 0.0
24/06:30pm 19.2 14.3 12.5 65 3.7 SSE 30 35 16 19 1028.8 1028.8 0.0
24/06:00pm 19.3 13.7 11.6 61 4.2 SSE 32 39 17 21 1028.4 1028.4 0.0
24/05:30pm 18.9 11.5 12.6 67 3.5 SSE 43 50 23 27 1028.3 1028.3 0.0
24/05:00pm 19.7 14.5 12.7 64 3.9 SSE 32 41 17 22 1027.9 1027.9 0.0
24/04:30pm 19.9 14.7 12.9 64 4.0 SSE 32 35 17 19 1027.5 1027.5 0.0
24/04:00pm 20.0 15.5 12.5 62 4.2 SSE 28 33 15 18 1027.6 1027.6 0.0
24/03:30pm 20.6 15.7 12.6 60 4.5 SSE 30 35 16 19 1026.9 1026.9 0.0
24/03:00pm 20.7 15.8 12.4 59 4.6 SSE 30 35 16 19 1026.9 1026.9 0.0
24/02:30pm 21.3 16.6 11.9 55 5.3 SSE 28 33 15 18 1026.8 1026.8 0.0
24/02:00pm 21.2 15.8 12.3 57 5.0 SSE 32 37 17 20 1026.8 1026.8 0.0
24/01:30pm 21.2 15.7 12.3 57 5.0 SSE 33 37 18 20 1026.7 1026.7 0.0
24/01:00pm 21.4 16.2 11.7 54 5.4 SSE 30 33 16 18 1026.6 1026.6 0.0
24/12:30pm 22.0 16.7 12.5 54 5.4 SSE 32 33 17 18 1026.7 1026.7 0.0
24/12:00pm 21.6 16.0 11.6 53 5.5 SSE 32 35 17 19 1027.2 1027.2 0.0
24/11:30am 21.1 17.7 11.4 54 5.4 SSE 20 26 11 14 1027.8 1027.8 0.0
24/11:00am 20.8 16.2 11.2 54 5.3 S 26 30 14 16 1027.9 1027.9 0.0
24/10:30am 20.6 15.7 11.2 55 5.2 S 28 32 15 17 1028.1 1028.1 0.0
24/10:00am 19.8 15.1 10.8 56 4.9 S 26 32 14 17 1028.4 1028.4 0.0
24/09:30am 19.3 15.8 10.8 58 4.6 SSW 20 30 11 16 1028.4 1028.4 0.0
24/09:00am 18.8 15.1 11.4 62 4.0 SSW 22 30 12 16 1028.0 1028.0 0.0
24/08:30am 17.6 14.0 10.7 64 3.7 SSW 20 30 11 16 1028.2 1028.2 0.0
24/08:00am 16.1 12.7 10.6 70 2.9 SSW 19 28 10 15 1027.9 1027.9 0.0
24/07:30am 15.2 12.5 10.4 73 2.5 SW 15 22 8 12 1027.9 1027.9 0.0
24/07:00am 14.2 11.8 10.2 77 2.1 SW 13 17 7 9 1027.5 1027.5 0.0
24/06:30am 14.2 11.5 10.4 78 2.0 SSW 15 20 8 11 1026.8 1026.8 0.0
24/06:00am 14.1 11.4 10.5 79 1.9 SSW 15 19 8 10 1026.3 1026.3 0.0
24/05:30am 14.1 10.8 10.9 81 1.7 SSW 19 26 10 14 1026.1 1026.1 0.0
24/05:00am 14.0 11.4 10.8 81 1.7 SSW 15 22 8 12 1025.8 1025.8 0.0
24/04:30am 14.1 11.6 10.9 81 1.7 SSW 15 20 8 11 1025.8 1025.8 0.0
24/04:00am 14.4 12.1 10.6 78 2.0 SW 13 17 7 9 1025.5 1025.5 0.0
24/03:30am 14.7 12.5 10.7 77 2.1 SW 13 20 7 11 1025.7 1025.7 0.0
24/03:00am 14.8 12.1 10.4 75 2.3 SSW 15 22 8 12 1025.8 1025.8 0.0
24/02:30am 15.4 12.4 10.6 73 2.5 SSW 17 24 9 13 1026.0 1026.0 0.0
24/02:00am 16.1 12.7 11.1 72 2.7 SSW 20 28 11 15 1026.0 1026.0 0.0
24/01:30am 16.0 12.6 11.2 73 2.6 SSW 20 26 11 14 1025.7 1025.7 0.0
24/01:00am 14.8 11.7 10.4 75 2.3 SSW 17 26 9 14 1025.7 1025.7 0.0
24/12:30am 14.5 11.0 10.1 75 2.3 SSW 19 26 10 14 1025.5 1025.5 0.0
24/12:00am 14.1 11.2 9.7 75 2.3 SSW 15 22 8 12 1025.6 1025.6 0.0
 
Date/Time
EST
Tmp

°C
App
Tmp
°C
Dew
Point
°C
Rel
Hum
%
Delta-T

°C
Wind Press
QNH
hPa
Press
MSL
hPa
Rain
since
9 am
mm
Dir
 
Spd
km/h
Gust
km/h
Spd
kts
Gust
kts
23/11:30pm 14.1 11.9 9.3 73 2.5 SW 11 15 6 8 1025.6 1025.6 0.0
23/11:00pm 14.2 11.5 9.0 71 2.6 SW 13 17 7 9 1025.6 1025.6 0.0
23/10:30pm 14.9 12.3 9.3 69 2.9 SSW 13 19 7 10 1025.5 1025.5 0.0
23/10:00pm 15.1 12.0 8.8 66 3.2 SSW 15 20 8 11 1025.5 1025.5 0.0
23/09:30pm 16.0 12.4 8.5 61 3.8 SSW 17 20 9 11 1025.4 1025.4 0.0
23/09:00pm 16.6 12.0 8.3 58 4.2 SSW 22 28 12 15 1025.5 1025.5 0.0
23/08:30pm 17.1 12.9 8.3 56 4.5 SSW 20 30 11 16 1025.4 1025.4 0.0
23/08:00pm 17.7 12.1 8.6 55 4.7 S 28 37 15 20 1025.4 1025.4 0.0
23/07:30pm 18.3 11.7 8.6 53 5.0 S 33 41 18 22 1025.3 1025.3 0.0
23/07:00pm 18.2 13.4 9.0 55 4.8 S 24 32 13 17 1025.1 1025.1 0.0
23/06:30pm 18.4 14.6 9.2 55 4.8 SSW 19 26 10 14 1024.7 1024.7 0.0
23/06:00pm 19.1 15.2 9.6 54 5.0 S 20 30 11 16 1024.5 1024.5 0.0
23/05:30pm 19.3 13.8 9.2 52 5.3 S 28 32 15 17 1024.2 1024.2 0.0
23/05:00pm 19.3 13.8 9.2 52 5.3 S 28 32 15 17 1024.1 1024.1 0.0
23/04:30pm 19.7 13.4 9.6 52 5.4 SSE 33 39 18 21 1023.8 1023.8 0.0
23/04:00pm 19.9 13.0 8.9 49 5.8 S 35 44 19 24 1023.3 1023.3 0.0
23/03:30pm 20.5 13.7 10.6 53 5.4 SSE 37 44 20 24 1022.8 1022.8 0.0
23/03:00pm 21.1 14.0 8.0 43 6.8 SSE 35 41 19 22 1022.7 1022.7 0.0
23/02:30pm 21.6 15.0 8.5 43 6.9 SSE 33 37 18 20 1022.7 1022.7 0.0
23/02:00pm 21.4 14.5 9.0 45 6.6 SSE 35 39 19 21 1022.6 1022.6 0.0
23/01:30pm 21.4 13.3 8.7 44 6.7 SSE 41 50 22 27 1022.8 1022.8 0.0
23/01:00pm 21.7 13.5 8.2 42 7.0 SSE 41 52 22 28 1022.5 1022.5 0.0
23/12:30pm 21.7 14.2 9.3 45 6.6 SSE 39 48 21 26 1022.6 1022.6 0.0
23/12:00pm 21.2 12.5 7.8 42 6.9 S 43 50 23 27 1022.8 1022.8 0.0
23/11:30am 21.2 13.8 8.5 44 6.7 S 37 46 20 25 1023.1 1023.1 0.0
23/11:00am 21.1 15.0 9.7 48 6.1 S 32 37 17 20 1023.4 1023.4 0.0
23/10:30am 20.6 14.7 9.2 48 6.0 S 30 33 16 18 1023.4 1023.4 0.0
23/10:00am 20.1 15.9 9.9 52 5.4 SSW 22 32 12 17 1023.4 1023.4 0.0
23/09:30am 19.1 14.8 9.3 53 5.2 SSW 22 32 12 17 1023.2 1023.2 0.0
23/09:00am 18.1 13.9 8.4 53 5.0 SSW 20 30 11 16 1022.8 1022.8 0.2
23/08:30am 17.7 13.6 8.6 55 4.7 SSW 20 32 11 17 1022.7 1022.7 0.2
23/08:00am 17.0 13.2 8.9 59 4.2 SSW 19 28 10 15 1022.2 1022.2 0.2
23/07:30am 15.9 12.1 8.9 63 3.6 SW 19 30 10 16 1021.9 1021.9 0.2
23/07:00am 15.4 12.2 8.4 63 3.5 SW 15 22 8 12 1021.5 1021.5 0.2
23/06:30am 14.8 10.9 8.5 66 3.2 SSW 19 32 10 17 1021.1 1021.1 0.2
23/06:00am 14.4 10.2 8.4 67 3.0 SW 20 32 11 17 1020.8 1020.8 0.2
23/05:30am 14.5 10.6 8.5 67 3.0 SW 19 30 10 16 1020.4 1020.4 0.2
23/05:00am 14.6 11.0 8.3 66 3.2 SW 17 28 9 15 1020.0 1020.0 0.2
23/04:30am 14.9 11.3 8.4 65 3.3 SW 17 32 9 17 1019.9 1019.9 0.2
23/04:00am 15.3 11.3 8.3 63 3.5 SW 19 30 10 16 1019.6 1019.6 0.2
23/03:30am 15.2 11.0 8.4 64 3.4 SW 20 30 11 16 1019.5 1019.5 0.2
23/03:00am 14.9 11.0 8.8 67 3.1 SW 19 28 10 15 1019.5 1019.5 0.2
23/02:30am 14.9 11.7 8.6 66 3.2 SW 15 22 8 12 1019.4 1019.4 0.2
23/02:00am 15.0 11.5 8.7 66 3.2 SW 17 22 9 12 1019.4 1019.4 0.2
23/01:30am 15.3 11.9 9.0 66 3.2 WSW 17 24 9 13 1019.6 1019.6 0.2
23/01:00am 14.9 11.5 9.1 68 3.0 WSW 17 24 9 13 1019.7 1019.7 0.2
23/12:30am 14.0 10.5 8.6 70 2.7 WSW 17 20 9 11 1019.6 1019.6 0.2
23/12:00am 13.7 10.2 8.7 72 2.5 WSW 17 22 9 12 1019.4 1019.4 0.2
 
Date/Time
EST
Tmp

°C
App
Tmp
°C
Dew
Point
°C
Rel
Hum
%
Delta-T

°C
Wind Press
QNH
hPa
Press
MSL
hPa
Rain
since
9 am
mm
Dir
 
Spd
km/h
Gust
km/h
Spd
kts
Gust
kts
22/11:30pm 13.0 9.8 8.3 73 2.3 W 15 19 8 10 1019.5 1019.5 0.2
22/11:00pm 14.1 11.2 8.1 67 3.0 W 13 19 7 10 1019.5 1019.5 0.2
22/10:30pm 14.5 11.2 8.0 65 3.2 WSW 15 22 8 12 1019.4 1019.4 0.2
22/10:00pm 14.8 10.8 8.1 64 3.3 WSW 19 26 10 14 1019.5 1019.5 0.2
22/09:30pm 15.3 11.6 7.8 61 3.7 W 17 26 9 14 1019.4 1019.4 0.2
22/09:00pm 15.5 11.4 7.8 60 3.8 W 19 28 10 15 1018.9 1018.9 0.2
22/08:30pm 15.6 11.4 7.6 59 4.0 WSW 19 30 10 16 1018.7 1018.7 0.2
22/08:00pm 15.5 11.3 7.5 59 4.0 WSW 19 28 10 15 1018.6 1018.6 0.2
22/07:30pm 15.8 12.7 7.3 57 4.2 W 13 20 7 11 1018.4 1018.4 0.2
22/07:00pm 15.9 12.0 6.9 55 4.4 WSW 17 26 9 14 1017.8 1017.7 0.2
22/06:30pm 16.1 12.2 7.1 55 4.5 WSW 17 28 9 15 1017.3 1017.2 0.2
22/06:00pm 16.1 12.1 6.8 54 4.6 W 17 33 9 18 1016.8 1016.7 0.2
22/05:30pm 16.3 11.4 6.7 53 4.7 W 22 33 12 18 1016.4 1016.3 0.2
22/05:00pm 16.6 12.0 6.4 51 5.0 WSW 20 30 11 16 1016.5 1016.4 0.2
22/04:30pm 17.4 12.8 6.6 49 5.3 WSW 20 32 11 17 1016.4 1016.3 0.2
22/04:00pm 18.0 12.2 6.2 46 5.8 W 26 41 14 22 1015.8 1015.7 0.2
22/03:30pm 18.2 11.7 6.7 47 5.7 W 30 50 16 27 1015.6 1015.5 0.2
22/03:27pm 18.2 12.0 6.1 45 6.0 W 28 50 15 27 1015.5 1015.4 0.2
22/03:00pm 18.5 12.7 6.4 45 6.0 W 26 39 14 21 1015.3 1015.2 0.2
22/02:30pm 18.2 13.9 5.4 43 6.2 W 17 32 9 17 1015.2 1015.1 0.2
22/02:03pm 18.2 11.8 5.4 43 6.2 WSW 28 52 15 28 1015.6 1015.5 0.2
22/02:00pm 18.2 12.1 4.7 41 6.5 WSW 26 37 14 20 1015.6 1015.5 0.2
22/01:30pm 18.6 12.1 6.4 45 6.1 W 30 48 16 26 1015.7 1015.6 0.2

Latest Capital City Observations: Canberra | Sydney | Melbourne | Brisbane | Adelaide | Perth | Hobart | Darwin

Other Formats:

Comma delimited format used in spreadsheet applications
http://www.bom.gov.au/fwo/IDQ60901/IDQ60901.95591.axf

JavaScript Object Notation format (JSON) in row-major order
http://www.bom.gov.au/fwo/IDQ60901/IDQ60901.95591.json